Regional Weather Roundup
Issued by NWS New Orleans/Baton Rouge, LA

Home | Current Version | Previous Version | Graphics & Text | Print | Product List | Glossary On
Versions: 1 2 3 4 5 6 7 8 9 10 11 12 13 14 15 16 17 18 19 20 21 22 23 24 25 26 27 28 29 30 31 32 33 34 35 36 37 38 39 40 41 42 43 44 45 46 47 48 49 50
415
ASUS44 KLIX 190605
RWRLIX
NEW ORLEANS REGIONAL WEATHER ROUNDUP
NATIONAL WEATHER SERVICE NEW ORLEANS LA
100 AM CDT SAT APR 19 2014

NOTE: "FAIR" INDICATES FEW OR NO CLOUDS BELOW 12,000 FEET WITH NO
      SIGNIFICANT WEATHER AND/OR OBSTRUCTIONS TO VISIBILITY.
      SKY/WX - SKY CONDITION AND SIGNIFICANT WEATHER.
      TMP - AIR TEMPERATURE.     DP    - DEWPOINT TEMPERATURE.
      RH  - RELATIVE HUMIDITY.   PRES  - PRESSURE.
      HI  - HEAT INDEX.          WCI   - WIND CHILL INDEX.

*  THESE STATIONS ARE NOT NWS OR FAA STATIONS AND ARE NOT UNDER
   NWS QUALITY CONTROL.

LAZ038-040-048-061>063-065>067-069-190700-
SOUTHEAST LOUISIANA

CITY           SKY/WX    TMP DP  RH WIND       PRES   REMARKS
N.O. AUDUBON     N/A     62  56  82 MISG        N/A
6HR MIN TEMP:  61; 6HR MAX TEMP:  69;

N.O. INTL ARPT   N/A     61  54  77 NE14G22   30.14F
6HR MIN TEMP:  60; 6HR MAX TEMP:  68;

N.O. LAKEFRONT   N/A     61  55  81 NE18      30.15F
6HR MIN TEMP:  61; 6HR MAX TEMP:  66;

N.O. DOWNTOWN*   N/A     61  52  72 N6        30.14F
6HR MIN TEMP:  61; 6HR MAX TEMP:  68;

SLIDELL          N/A     55  52  89 N5        30.15S
6HR MIN TEMP:  55; 6HR MAX TEMP:  65;

BATON ROUGE      N/A     60  54  80 NE8       30.14F
6HR MIN TEMP:  58; 6HR MAX TEMP:  68;

BOOTHVILLE     CLOUDY    62  54  74 N12G23    30.11F
6HR MIN TEMP:  61; 6HR MAX TEMP:  63;

BELLE CHASSE     N/A     60  54  80 NE5       30.13F
6HR MIN TEMP:  59; 6HR MAX TEMP:  67;

BOGALUSA*        N/A     55  51  88 NW5       30.19R
GALLIANO*        N/A     60  56  87 N7        30.12F
6HR MIN TEMP:  60; 6HR MAX TEMP:  71;

NEW ROADS*       N/A     60  57  91 E5        30.14S
6HR MIN TEMP:  59; 6HR MAX TEMP:  65; 6HR PCP:  0.04;

GONZALES*        N/A     61  56  84 NE3       30.13F
6HR MIN TEMP:  58; 6HR MAX TEMP:  72;

HAMMOND*         N/A     59  54  82 CALM      30.18F
HOUMA*           N/A     59  54  83 NE7       30.13F
6HR MIN TEMP:  58; 6HR MAX TEMP:  71;

PORT FOURCHON* CLEAR     63  57  82 N10       30.13F

$$

MSZ070-080>082-190700-
SOUTHERN MISSISSIPPI

CITY           SKY/WX    TMP DP  RH WIND       PRES   REMARKS
MCCOMB           N/A     58  53  84 NE5       30.19S
6HR MIN TEMP:  54; 6HR MAX TEMP:  70;

GULFPORT         N/A     60  53  77 N9        30.14R
6HR MIN TEMP:  60; 6HR MAX TEMP:  65;

BILOXI           N/A     58  53  84 N10       30.13S
6HR MIN TEMP:  58; 6HR MAX TEMP:  64;

PASCAGOULA     CLOUDY    57  54  89 N10G16    30.12R
6HR MIN TEMP:  57; 6HR MAX TEMP:  62; 6HR PCP: TRACE;


$$

COASTAL OBSERVATIONS
LAKE AND NEARSHORE STATIONS

STATION/POSITION TIME  TEMP    WIND        PRES    WAVE
                       AIR SEA DIR/SP/G            HT/PER
                 (UTC) (F)     (DEG/KT/KT) (MB)    (FT/S)
PASCAGOULA       0600   59     350/  9/ 11 1018.9
WAVELAND YACHT   0600   58 66  340/ 10/ 12 1020.2
GRAND ISLE       0600   63 67   30/ 12/ 17 1020.3
SOUTHWEST PASS   0600   64 58   20/ 15/ 18 1019.3
NEW CANAL        0600   62 65   40/ 16/ 18 1021.0
SHELL BEACH      0600   61 62   20/ 16/ 19 1020.3

OFFSHORE STATIONS

STATION/POSITION TIME  TEMP    WIND        PRES    WAVE
                       AIR SEA DIR/SP/G            HT/PER
                 (UTC) (F)     (DEG/KT/KT) (MB)    (FT/S)
64 S DAUPHIN ISL 0534   62 70   10/ 21/ 23 1018.4

$$




USA.gov is the U.S. government's official web portal to all federal, state and local government web resources and services.